Colby, KS

6:07 AM CST on December 13, 2017 (GMT -0600)
Shaltz

Weather History for KCBK - April, 2013

Change the Weather History Date:

Tuesday, April 30, 2013

  Actual Average (KGLD) Record (KGLD)
Temperature  
Mean Temperature 58 °F -  
Max Temperature 69 °F 64 °F 96 °F (1992)
Min Temperature 46 °F 39 °F 14 °F (1907)
Degree Days  
Heating Degree Days 8    
Growing Degree Days 8 (Base 50)    
Moisture  
Dew Point 42 °F    
Average Humidity 52    
Maximum Humidity 71    
Minimum Humidity 40    
Precipitation  
Precipitation 0.00 in - - ()
Sea Level Pressure  
Sea Level Pressure 29.69 in    
Wind  
Wind Speed 14 mph (NNE)    
Max Wind Speed 31 mph    
Max Gust Speed 38 mph    
Visibility 10 miles    
Events      
Averages and records for this station are not official NWS values.
T = Trace of Precipitation, MM = Missing Value Source: NWS Daily Summary

Daily Weather History Graph

Daily Weather History Graph

Search for Another Location

Airport or City:

Trip Planner

Search our weather history database for the weather conditions in past years. The results will help you decide how hot, cold, wet, or windy it might be!

Date:

Astronomy

Apr. 30, 2013 Rise Set
Actual Time 6:46 AM CDT 8:37 PM CDT
Civil Twilight 6:17 AM CDT 9:06 PM CDT
Nautical Twilight 5:42 AM CDT 9:41 PM CDT
Astronomical Twilight 5:04 AM CDT 10:19 PM CDT
Moon 1:01 AM CDT (4/30) 11:17 AM CDT (4/30)
Length of Visible Light 14h 48m
Length of Day
13h 50m
Waning Gibbous, 70% of the Moon is Illuminated
Apr 30
Waning Gibbous
May 2
Last Quarter
May 9
New
May 17
First Quarter
May 24
Full

Hourly Weather History & Observations

Time (CDT) Temp. Windchill Dew Point Humidity Pressure Visibility Wind Dir Wind Speed Gust Speed Precip Events Conditions
12:15 AM 62.6 °F - 41.0 °F 45% 29.57 in 10.0 mi SSW 8.1 mph - N/A   Clear
12:35 AM 62.6 °F - 41.0 °F 45% 29.57 in 10.0 mi SSW 8.1 mph - N/A   Clear
12:55 AM 60.8 °F - 41.0 °F 48% 29.57 in 10.0 mi SSW 10.4 mph - N/A   Clear
1:15 AM 60.8 °F - 41.0 °F 48% 29.57 in 10.0 mi SSW 6.9 mph - N/A   Clear
1:35 AM 59.0 °F - 41.0 °F 51% 29.57 in 10.0 mi SSW 4.6 mph - N/A   Clear
1:55 AM 57.2 °F - 41.0 °F 55% 29.56 in 10.0 mi SSW 4.6 mph - N/A   Clear
2:15 AM 55.4 °F - 41.0 °F 58% 29.55 in 10.0 mi South 3.5 mph - N/A   Clear
2:35 AM 55.4 °F - 41.0 °F 58% 29.55 in 10.0 mi SSW 3.5 mph - N/A   Clear
2:55 AM 57.2 °F - 39.2 °F 51% 29.54 in 10.0 mi South 5.8 mph - N/A   Clear
3:15 AM 59.0 °F - 39.2 °F 48% 29.54 in 10.0 mi SSE 9.2 mph - N/A   Clear
3:35 AM 59.0 °F - 39.2 °F 48% 29.54 in 10.0 mi South 8.1 mph - N/A   Clear
3:55 AM 59.0 °F - 39.2 °F 48% 29.54 in 10.0 mi South 8.1 mph - N/A   Clear
4:15 AM 55.4 °F - 41.0 °F 58% 29.54 in 10.0 mi SSW 5.8 mph - N/A   Clear
4:35 AM 51.8 °F - 39.2 °F 62% 29.54 in 10.0 mi SW 6.9 mph - N/A   Clear
4:55 AM 48.2 °F - 37.4 °F 66% 29.54 in 10.0 mi SW 4.6 mph - N/A   Clear
5:15 AM 48.2 °F - 37.4 °F 66% 29.55 in 10.0 mi WNW 12.7 mph - N/A   Clear
5:35 AM 46.4 °F 41.1 °F 37.4 °F 71% 29.56 in 10.0 mi NW 11.5 mph - N/A   Clear
5:55 AM 51.8 °F - 37.4 °F 58% 29.57 in 10.0 mi NW 6.9 mph - N/A   Clear
6:15 AM 51.8 °F - 37.4 °F 58% 29.57 in 10.0 mi NNW 6.9 mph - N/A   Clear
6:35 AM 50.0 °F - 37.4 °F 62% 29.58 in 10.0 mi North 8.1 mph - N/A   Clear
6:55 AM 46.4 °F 41.1 °F 37.4 °F 71% 29.60 in 10.0 mi NNW 11.5 mph 18.4 mph N/A   Clear
7:15 AM 51.8 °F - 41.0 °F 67% 29.64 in 10.0 mi NNW 20.7 mph 25.3 mph N/A   Clear
7:35 AM 51.8 °F - 41.0 °F 67% 29.65 in 10.0 mi North 24.2 mph 33.4 mph N/A   Clear
7:55 AM 50.0 °F - 41.0 °F 71% 29.68 in 10.0 mi North 24.2 mph 32.2 mph N/A   Clear
8:15 AM 51.8 °F - 41.0 °F 67% 29.69 in 10.0 mi North 26.5 mph 33.4 mph N/A   Clear
8:35 AM 51.8 °F - 41.0 °F 67% 29.69 in 10.0 mi North 29.9 mph 35.7 mph N/A   Clear
8:55 AM 53.6 °F - 42.8 °F 67% 29.71 in 10.0 mi North 29.9 mph 36.8 mph N/A   Clear
9:15 AM 53.6 °F - 42.8 °F 67% 29.72 in 10.0 mi North 31.1 mph 38.0 mph N/A   Clear
9:35 AM 53.6 °F - 42.8 °F 67% 29.73 in 10.0 mi North 28.8 mph 35.7 mph N/A   Clear
9:55 AM 53.6 °F - 42.8 °F 67% 29.75 in 10.0 mi North 24.2 mph 33.4 mph N/A   Clear
10:15 AM 55.4 °F - 42.8 °F 63% 29.76 in 10.0 mi NNE 23.0 mph 34.5 mph N/A   Clear
10:35 AM 57.2 °F - 42.8 °F 59% 29.75 in 10.0 mi North 27.6 mph 33.4 mph N/A   Clear
10:55 AM 59.0 °F - 42.8 °F 55% 29.75 in 10.0 mi NNE 24.2 mph 32.2 mph N/A   Clear
11:15 AM 60.8 °F - 42.8 °F 52% 29.75 in 10.0 mi NNE 23.0 mph 28.8 mph N/A   Clear
11:35 AM 60.8 °F - 42.8 °F 52% 29.75 in 10.0 mi North 21.9 mph 32.2 mph N/A   Clear
11:55 AM 62.6 °F - 42.8 °F 48% 29.76 in 10.0 mi NNE 21.9 mph 27.6 mph N/A   Clear
12:15 PM 62.6 °F - 42.8 °F 48% 29.76 in 10.0 mi NNE 19.6 mph 28.8 mph N/A   Clear
12:35 PM 62.6 °F - 42.8 °F 48% 29.76 in 10.0 mi NNE 19.6 mph 24.2 mph N/A   Clear
12:55 PM 64.4 °F - 42.8 °F 45% 29.76 in 10.0 mi North 18.4 mph 23.0 mph N/A   Clear
1:15 PM 64.4 °F - 42.8 °F 45% 29.75 in 10.0 mi NE 20.7 mph 27.6 mph N/A   Clear
1:55 PM 66.2 °F - 42.8 °F 43% 29.75 in 10.0 mi NE 16.1 mph 24.2 mph N/A   Clear
2:15 PM 66.2 °F - 42.8 °F 43% 29.75 in 10.0 mi ENE 17.3 mph 27.6 mph N/A   Clear
2:35 PM 68.0 °F - 42.8 °F 40% 29.75 in 10.0 mi NE 18.4 mph 24.2 mph N/A   Clear
2:55 PM 68.0 °F - 42.8 °F 40% 29.75 in 10.0 mi NE 18.4 mph 25.3 mph N/A   Clear
3:35 PM 69.8 °F - 44.6 °F 40% 29.75 in 10.0 mi NE 18.4 mph 26.5 mph N/A   Clear
3:55 PM 69.8 °F - 44.6 °F 40% 29.74 in 10.0 mi NE 19.6 mph 27.6 mph N/A   Clear
4:15 PM 69.8 °F - 44.6 °F 40% 29.74 in 10.0 mi ENE 16.1 mph 27.6 mph N/A   Clear
4:35 PM 69.8 °F - 44.6 °F 40% 29.73 in 10.0 mi ENE 20.7 mph 25.3 mph N/A   Clear
4:55 PM 69.8 °F - 44.6 °F 40% 29.73 in 10.0 mi ENE 16.1 mph 25.3 mph N/A   Clear
5:15 PM 69.8 °F - 44.6 °F 40% 29.74 in 10.0 mi ENE 20.7 mph 24.2 mph N/A   Clear
5:35 PM 69.8 °F - 44.6 °F 40% 29.74 in 10.0 mi NE 18.4 mph 26.5 mph N/A   Clear
5:55 PM 69.8 °F - 44.6 °F 40% 29.74 in 10.0 mi ENE 19.6 mph 26.5 mph N/A   Clear
6:35 PM 68.0 °F - 44.6 °F 43% 29.74 in 10.0 mi NE 21.9 mph 26.5 mph N/A   Clear
6:55 PM 68.0 °F - 44.6 °F 43% 29.74 in 10.0 mi NE 18.4 mph - N/A   Clear
7:15 PM 66.2 °F - 44.6 °F 46% 29.74 in 10.0 mi NE 20.7 mph 24.2 mph N/A   Clear
7:35 PM 66.2 °F - 44.6 °F 46% 29.75 in 10.0 mi NE 20.7 mph 25.3 mph N/A   Clear
7:55 PM 64.4 °F - 44.6 °F 49% 29.75 in 10.0 mi NNE 19.6 mph - N/A   Clear
8:15 PM 64.4 °F - 44.6 °F 49% 29.75 in 10.0 mi NE 18.4 mph 24.2 mph N/A   Clear
8:35 PM 62.6 °F - 44.6 °F 52% 29.77 in 10.0 mi NNE 17.3 mph - N/A   Clear
8:55 PM 62.6 °F - 44.6 °F 52% 29.77 in 10.0 mi NE 20.7 mph - N/A   Clear
9:15 PM 60.8 °F - 44.6 °F 55% 29.77 in 10.0 mi NNE 20.7 mph 26.5 mph N/A   Clear
9:35 PM 60.8 °F - 42.8 °F 52% 29.79 in 10.0 mi NNE 24.2 mph 28.8 mph N/A   Scattered Clouds
9:55 PM 59.0 °F - 41.0 °F 51% 29.79 in 10.0 mi NE 24.2 mph 29.9 mph N/A   Scattered Clouds
10:15 PM 59.0 °F - 41.0 °F 51% 29.79 in 10.0 mi NE 26.5 mph 31.1 mph N/A   Clear
10:35 PM 59.0 °F - 41.0 °F 51% 29.80 in 10.0 mi NE 24.2 mph 31.1 mph N/A   Mostly Cloudy
10:55 PM 59.0 °F - 41.0 °F 51% 29.81 in 10.0 mi NE 25.3 mph 29.9 mph N/A   Overcast
11:15 PM 59.0 °F - 41.0 °F 51% 29.82 in 10.0 mi NNE 23.0 mph - N/A   Overcast
11:35 PM 59.0 °F - 37.4 °F 45% 29.84 in 10.0 mi NE 21.9 mph 31.1 mph N/A   Overcast
11:55 PM 57.2 °F - 33.8 °F 41% 29.86 in 10.0 mi NNE 18.4 mph 32.2 mph N/A   Overcast